CDT,Max TemperatureF,Mean TemperatureF,Min TemperatureF,Max Dew PointF,MeanDew PointF,Min DewpointF,Max Humidity, Mean Humidity, Min Humidity, Max Sea Level PressureIn, Mean Sea Level PressureIn, Min Sea Level PressureIn, Max VisibilityMiles, Mean VisibilityMiles, Min VisibilityMiles, Max Wind SpeedMPH, Mean Wind SpeedMPH, Max Gust SpeedMPH,PrecipitationIn, CloudCover, Events, WindDirDegrees
2013-7-1,81,70,59,58,53,49,84,60,35,30.04,30.01,29.98,10,10,10,22,12,26,0.00,0,,18
2013-7-2,79,69,58,57,53,50,80,60,39,30.06,30.03,30.01,10,10,10,21,9,26,0.00,0,,33
2013-7-3,82,72,61,61,57,55,84,63,42,30.06,30.03,29.99,10,10,8,10,5,13,0.00,2,,140
2013-7-4,85,73,61,61,59,57,90,67,43,30.07,30.03,29.99,10,10,6,12,6,15,0.00,0,,186
2013-7-5,86,75,64,63,60,58,81,62,42,30.06,30.02,29.98,10,10,4,12,7,17,0.00,0,,165
2013-7-6,87,77,66,67,64,62,93,70,46,30.03,29.99,29.93,10,9,4,13,7,18,0.00,0,,162
2013-7-7,90,80,70,70,66,61,78,63,47,29.99,29.97,29.94,10,10,10,15,9,20,T,2,Rain,199
2013-7-8,87,81,74,74,70,65,79,70,61,30.05,30.00,29.97,10,10,9,15,7,20,0.02,2,Rain,203
2013-7-9,93,85,76,74,72,70,87,70,52,30.01,29.95,29.88,10,10,10,17,8,22,0.02,1,,200
2013-7-10,88,77,65,72,67,59,82,64,46,30.02,29.93,29.84,10,10,10,18,9,24,T,3,Rain-Thunderstorm,292
2013-7-11,84,72,60,62,58,54,90,64,37,30.09,30.06,30.03,10,10,8,13,5,18,0.00,1,,53
2013-7-12,84,72,60,59,55,49,84,59,33,30.13,30.09,30.05,10,10,10,15,7,20,0.00,0,,123
2013-7-13,84,72,60,61,57,54,78,61,43,30.11,30.07,30.04,10,10,10,14,6,16,0.00,0,,111
2013-7-14,88,77,66,68,63,60,87,65,42,30.14,30.11,30.07,10,10,7,16,7,20,0.00,0,,114
2013-7-15,90,80,69,72,69,66,90,71,52,30.22,30.18,30.15,10,10,8,15,5,18,T,1,,124
2013-7-16,92,83,73,73,71,69,93,71,49,30.28,30.25,30.21,10,10,7,12,6,15,0.00,1,,166
2013-7-17,95,85,74,73,71,69,87,67,46,30.32,30.26,30.19,10,10,10,10,4,13,0.00,1,,196
2013-7-18,95,85,74,72,70,68,93,69,44,30.19,30.09,29.98,10,10,9,14,6,20,0.00,0,,202
2013-7-19,97,86,74,71,68,64,87,61,35,29.99,29.91,29.83,10,10,10,16,8,23,0.00,0,,221
2013-7-20,89,79,69,69,66,60,87,65,42,29.91,29.87,29.83,10,10,10,13,6,16,0.00,1,,34
2013-7-21,82,75,68,72,68,64,97,82,67,29.91,29.88,29.82,10,9,4,14,4,18,0.23,3,Rain,128
2013-7-22,89,77,65,73,68,64,100,80,59,29.89,29.84,29.76,10,4,0,14,4,18,0.00,3,Fog,179
2013-7-23,86,75,63,66,63,60,93,69,44,29.93,29.85,29.78,10,10,10,18,8,22,T,1,Thunderstorm,7
2013-7-24,79,70,61,59,55,52,90,65,40,30.04,30.01,29.94,10,10,10,14,6,18,T,1,,48
2013-7-25,83,70,57,60,56,53,86,64,42,30.12,30.07,30.04,10,10,10,8,3,,0.00,1,,156
2013-7-26,80,70,60,70,64,56,84,73,61,30.02,29.97,29.91,10,9,1,18,7,23,0.25,6,Rain-Thunderstorm,236
2013-7-27,73,63,53,56,50,46,93,67,41,30.03,30.00,29.98,10,10,10,20,9,26,0.00,1,,321
2013-7-28,78,64,49,52,48,46,93,63,33,30.06,30.01,29.99,10,10,10,17,7,23,0.00,0,,282
2013-7-29,78,64,50,62,55,49,89,66,43,30.14,30.11,30.06,10,10,10,10,5,16,0.02,4,,125
2013-7-30,78,72,65,70,66,62,93,82,71,30.13,30.05,29.99,10,8,2,15,6,17,0.55,8,Rain,133
2013-7-31,77,71,64,70,66,63,100,85,69,30.08,30.05,30.01,10,5,0,12,6,15,T,7,Fog-Rain,330